CSS (WENTIAN)

Last updated on Wed Aug 19 2026 00:02:04 GMT+0000 (Coordinated Universal Time)

1 53239U 22085A 26230.62348307 .00003122 00000+0 43037-4 0 9993 2 53239 41.4695 302.9948 0001360 251.2844 108.7847 15.59060695288238
UTC large
Height (km)
Speed (km/s)
/
Latitude / Longitude
Inclination (degrees)
Orbital Period (minutes)
Azimuth
Elevation
Range (km)
Doppler Factor

Next 0 passes for location: London (51.5072 / 0.1276)

No passes found over London.
CSS (WENTIAN)